Location: ?????????
(41.1143°N, 22.7905°E)
Time: 23:44:04
(UTC+00:00)

Cosmos 2227 Rocket - Visible Passes

Search period start: 13 March 2026 00:00
Search period end: 23 March 2026 00:00
Orbit: 836 x 845 km, 71.0° (Epoch: 13 March)

Date Brightness Start Highest point End Pass type
(mag) Time Alt. Az. Time Alt. Az. Time Alt. Az.
13 Mar 4.9 20:39:13 10° N 20:39:41 12° N 20:39:41 12° N visible
14 Mar 4.7 20:23:54 10° N 20:24:47 14° N 20:24:47 14° N visible
15 Mar 4.5 20:08:35 10° N 20:09:54 16° N 20:09:54 16° N visible
16 Mar 4.3 19:53:17 10° N 19:55:02 18° N 19:55:02 18° N visible
17 Mar 4.1 19:37:59 10° N 19:40:11 20° NNE 19:40:11 20° NNE visible
17 Mar 5.1 21:21:45 10° NW 21:21:59 11° NW 21:21:59 11° NW visible
18 Mar 3.9 19:22:40 10° N 19:25:22 22° NNE 19:25:22 22° NNE visible
18 Mar 4.9 21:06:21 10° NW 21:07:11 14° NW 21:07:11 14° NW visible
19 Mar 3.7 19:07:23 10° N 19:10:35 24° NNE 19:10:35 24° NNE visible
19 Mar 4.6 20:50:58 10° NW 20:52:23 18° NW 20:52:23 18° NW visible
20 Mar 3.6 18:52:05 10° N 18:55:50 24° NE 18:55:50 24° NE visible
20 Mar 4.3 20:35:35 10° NW 20:37:39 22° NW 20:37:39 22° NW visible
21 Mar 3.5 18:36:47 10° N 18:41:07 24° NE 18:41:07 24° NE visible
21 Mar 4.0 20:20:12 10° NNW 20:22:56 28° NW 20:22:56 28° NW visible
22 Mar 3.5 18:21:30 10° N 18:25:58 23° NE 18:26:27 23° ENE visible
22 Mar 3.5 20:04:49 10° NNW 20:08:16 36° NW 20:08:16 36° NW visible
